Location: Mahannah Oil Field
(37.4664°N, 96.6003°W)
Time: 10:21:16
(UTC+00:00)

Vanguard 3 - All Passes

Search period start: 24 January 2021 00:00
Search period end: 03 February 2021 00:00
Orbit: 508 x 3261 km, 33.3° (Epoch: 23 January)

Date Brightness Start Highest point End Pass type
(mag) Time Alt. Az. Time Alt. Az. Time Alt. Az.
24 Jan - 08:13:39 10° S 08:17:29 21° SE 08:22:48 10° E visible
24 Jan - 10:22:09 10° WSW 10:28:26 60° SSE 10:39:47 10° E visible
24 Jan - 12:32:46 10° W 12:41:33 70° S 12:57:19 10° ESE visible
24 Jan - 14:44:32 10° W 14:56:05 51° SSW 15:13:47 10° SE daylight
24 Jan - 16:59:09 10° W 17:11:05 26° SW 17:25:33 10° S daylight
25 Jan - 09:09:24 10° SW 09:14:26 41° SSE 09:22:44 10° E visible
25 Jan - 11:19:19 10° WSW 11:26:28 70° S 11:39:38 10° E visible
25 Jan - 13:30:24 10° W 13:40:12 60° SSW 13:56:51 10° ESE daylight
25 Jan - 15:43:10 10° W 15:54:56 36° SSW 16:11:12 10° SSE daylight
25 Jan - 18:03:04 10° WSW 18:09:43 13° SW 18:16:52 10° SSW daylight
26 Jan - 07:57:20 10° SSW 08:00:59 22° SE 08:06:00 10° E visible
26 Jan - 10:06:12 10° WSW 10:11:58 61° SSE 10:22:19 10° E visible
26 Jan - 12:16:44 10° W 12:24:49 67° S 12:39:25 10° ESE visible
26 Jan - 14:28:23 10° W 14:38:56 46° SSW 14:55:26 10° SE daylight
26 Jan - 16:43:23 10° WSW 16:53:43 22° SW 17:06:21 10° S daylight
27 Jan - 08:53:23 10° SW 08:58:01 43° SSE 09:05:35 10° E visible
27 Jan - 11:03:23 10° W 11:09:56 68° S 11:21:58 10° E visible
27 Jan - 13:14:21 10° W 13:23:18 55° SSW 13:38:43 10° SE daylight
27 Jan - 15:27:11 10° W 15:37:44 31° SSW 15:52:25 10° SSE daylight
28 Jan - 07:41:06 10° SSW 07:44:34 23° SSE 07:49:17 10° E night (unlit)
28 Jan - 09:50:16 10° WSW 09:55:35 61° S 10:04:56 10° E visible
28 Jan - 12:00:46 10° W 12:08:09 62° S 12:21:32 10° ESE visible
28 Jan - 14:12:23 10° W 14:21:56 40° SSW 14:36:56 10° SE daylight
28 Jan - 16:28:07 10° WSW 16:36:30 17° SW 16:46:37 10° S daylight
29 Jan - 08:37:23 10° SW 08:41:42 45° SSE 08:48:33 10° E visible
29 Jan - 10:47:28 10° W 10:53:28 65° S 11:04:23 10° ESE visible
29 Jan - 12:58:23 10° W 13:06:31 48° SSW 13:20:31 10° SE visible
29 Jan - 15:11:26 10° W 15:20:39 25° SSW 15:33:23 10° SSE daylight
30 Jan - 07:24:54 10° SSW 07:28:15 25° SSE 07:32:41 10° E night (unlit)
30 Jan - 09:34:23 10° WSW 09:39:16 61° S 09:47:41 10° E visible
30 Jan - 11:44:50 10° W 11:51:35 56° S 12:03:41 10° ESE visible
30 Jan - 13:56:31 10° W 14:05:04 33° SSW 14:18:20 10° SSE daylight
30 Jan - 16:13:52 10° WSW 16:19:27 13° SW 16:25:52 10° SSW daylight
31 Jan - 06:13:39 10° SSE 06:14:57 11° SSE 06:16:19 10° SE night (unlit)
31 Jan - 08:21:26 10° WSW 08:25:28 46° SSE 08:31:38 10° E visible
31 Jan - 10:31:35 10° W 10:37:06 61° S 10:46:53 10° ESE visible
31 Jan - 12:42:30 10° W 12:49:52 41° SSW 13:02:18 10° SE visible
31 Jan - 14:56:03 10° WSW 15:03:44 20° SSW 15:14:00 10° S daylight
01 Feb - 07:08:42 10° SW 07:11:59 28° SSE 07:16:09 10° E night (unlit)
01 Feb - 09:18:29 10° WSW 09:23:02 59° S 09:30:32 10° E visible
01 Feb - 11:28:59 10° W 11:35:07 49° SSW 11:45:52 10° ESE visible
01 Feb - 13:40:51 10° WSW 13:48:19 27° SSW 13:59:33 10° SSE daylight
02 Feb - 05:56:40 10° S 05:58:38 14° SSE 06:00:42 10° ESE night (unlit)
02 Feb - 08:05:28 10° WSW 08:09:17 47° SSE 08:14:50 10° E visible
02 Feb - 10:15:44 10° W 10:20:48 55° S 10:29:29 10° ESE visible
02 Feb - 12:26:43 10° W 12:33:18 34° SSW 12:44:02 10° SE visible
02 Feb - 14:41:17 10° WSW 14:46:57 15° SSW 14:54:03 10° S daylight
